When you browse on this site, cookies collect data to enhance your experience and personalize the content and advertising you see.
Visit our Privacy Policy to learn more. By continuing to use the site, you agree to this use of cookies and data.
  • In Deutschland
  • Länderverzeichnis
  • Für 7 Tage
  • Wassertemperatur
  • Satellitenkarten
  • Wetterkarte
  • Widgets
  • user-avatar
    Anmelden

    Stündliche Wetter Dongyuan

    Heute, 21 Februar, Donnerstag

    Zeit Temperatur Niederschläge Wind Luftdruck Luftfeuchtigkeit
    00:00 +18°C° 0 mm 4 m/S 764 mmHg 81%
    01:00 +18°C° 0 mm 4 m/S 763 mmHg 82%
    02:00 +18°C° 0 mm 4 m/S 763 mmHg 81%
    03:00 +18°C° 0 mm 4 m/S 763 mmHg 82%
    04:00 +18°C° 0 mm 4 m/S 763 mmHg 83%
    05:00 +18°C° 0 mm 4 m/S 763 mmHg 83%
    06:00 +18°C° 0 mm 4 m/S 763 mmHg 84%
    07:00 +18°C° 0 mm 4 m/S 763 mmHg 84%
    08:00 +17°C° 0 mm 4 m/S 763 mmHg 80%
    09:00 +18°C° 0 mm 4 m/S 763 mmHg 80%
    10:00 +18°C° 0 mm 4 m/S 763 mmHg 80%
    11:00 +18°C° 0 mm 4 m/S 763 mmHg 79%
    12:00 +20°C° 0 mm 4 m/S 762 mmHg 76%
    13:00 +21°C° 0 mm 4 m/S 761 mmHg 72%
    14:00 +22°C° 0 mm 5 m/S 761 mmHg 69%
    15:00 +22°C° 0 mm 4 m/S 761 mmHg 71%
    16:00 +21°C° 0 mm 4 m/S 761 mmHg 74%
    17:00 +21°C° 0 mm 4 m/S 761 mmHg 76%
    18:00 +20°C° 0.1 mm 4 m/S 761 mmHg 80%
    19:00 +19°C° 0.1 mm 4 m/S 761 mmHg 84%
    20:00 +19°C° 0.1 mm 4 m/S 762 mmHg 87%
    21:00 +19°C° 0.2 mm 4 m/S 762 mmHg 88%
    22:00 +19°C° 0.2 mm 4 m/S 762 mmHg 89%
    23:00 +19°C° 0.2 mm 4 m/S 762 mmHg 89%

    Morgen, 22 Februar, Freitag

    Zeit Temperatur Niederschläge Wind Luftdruck Luftfeuchtigkeit
    00:00 +18°C° 0.3 mm 4 m/S 761 mmHg 90%
    01:00 +18°C° 0.3 mm 4 m/S 761 mmHg 90%
    02:00 +18°C° 0.3 mm 4 m/S 761 mmHg 91%
    03:00 +18°C° 0.2 mm 4 m/S 761 mmHg 90%
    04:00 +18°C° 0.2 mm 4 m/S 761 mmHg 90%
    05:00 +18°C° 0.2 mm 4 m/S 761 mmHg 90%
    06:00 +18°C° 0.1 mm 4 m/S 761 mmHg 90%
    07:00 +18°C° 0.1 mm 4 m/S 761 mmHg 89%
    08:00 +18°C° 0.1 mm 4 m/S 761 mmHg 88%
    09:00 +19°C° 0 mm 4 m/S 762 mmHg 84%
    10:00 +20°C° 0 mm 4 m/S 762 mmHg 79%
    11:00 +21°C° 0 mm 4 m/S 762 mmHg 74%
    12:00 +22°C° 0 mm 4 m/S 761 mmHg 72%
    13:00 +22°C° 0 mm 4 m/S 761 mmHg 70%
    14:00 +23°C° 0 mm 4 m/S 760 mmHg 67%
    15:00 +22°C° 0 mm 5 m/S 760 mmHg 71%
    16:00 +21°C° 0 mm 5 m/S 760 mmHg 75%
    17:00 +20°C° 0 mm 5 m/S 760 mmHg 79%
    18:00 +20°C° 0 mm 5 m/S 760 mmHg 83%
    19:00 +19°C° 0 mm 6 m/S 761 mmHg 86%
    20:00 +17°C° 0 mm 6 m/S 762 mmHg 89%
    21:00 +17°C° 0 mm 7 m/S 762 mmHg 87%
    22:00 +17°C° 0 mm 7 m/S 762 mmHg 85%
    23:00 +17°C° 0 mm 8 m/S 762 mmHg 83%

    übermorgen, 23 Februar, Samstag

    Zeit Temperatur Niederschläge Wind Luftdruck Luftfeuchtigkeit
    00:00 +16°C° 0 mm 7 m/S 762 mmHg 81%
    01:00 +16°C° 0 mm 7 m/S 762 mmHg 80%
    02:00 +16°C° 0 mm 7 m/S 762 mmHg 78%
    03:00 +16°C° 0 mm 7 m/S 762 mmHg 79%
    04:00 +15°C° 0 mm 7 m/S 762 mmHg 79%
    05:00 +15°C° 0 mm 7 m/S 761 mmHg 80%
    06:00 +15°C° 0 mm 7 m/S 762 mmHg 78%
    07:00 +15°C° 0 mm 8 m/S 762 mmHg 76%
    08:00 +16°C° 0 mm 8 m/S 763 mmHg 74%
    09:00 +16°C° 0 mm 8 m/S 763 mmHg 71%
    10:00 +17°C° 0 mm 8 m/S 763 mmHg 67%
    11:00 +18°C° 0 mm 8 m/S 763 mmHg 64%
    12:00 +18°C° 0 mm 8 m/S 762 mmHg 62%
    13:00 +18°C° 0 mm 9 m/S 761 mmHg 61%
    14:00 +19°C° 0 mm 9 m/S 760 mmHg 60%
    15:00 +18°C° 0 mm 9 m/S 760 mmHg 62%
    16:00 +17°C° 0 mm 9 m/S 760 mmHg 64%
    17:00 +17°C° 0 mm 9 m/S 760 mmHg 66%
    18:00 +16°C° 0.4 mm 9 m/S 761 mmHg 70%
    19:00 +15°C° 0.4 mm 9 m/S 762 mmHg 73%
    20:00 +13°C° 0.4 mm 9 m/S 762 mmHg 77%
    21:00 +13°C° 1.1 mm 9 m/S 762 mmHg 78%
    22:00 +13°C° 1.1 mm 9 m/S 763 mmHg 79%
    23:00 +13°C° 1.1 mm 8 m/S 763 mmHg 80%

    24 Februar, Sonntag

    Zeit Temperatur Niederschläge Wind Luftdruck Luftfeuchtigkeit
    00:00 +13°C° 2 mm 8 m/S 763 mmHg 81%
    01:00 +13°C° 2 mm 8 m/S 762 mmHg 83%
    02:00 +13°C° 2 mm 8 m/S 762 mmHg 84%
    03:00 +13°C° 0.3 mm 8 m/S 762 mmHg 84%
    04:00 +13°C° 0.3 mm 8 m/S 761 mmHg 84%
    05:00 +13°C° 0.3 mm 8 m/S 761 mmHg 84%
    06:00 +13°C° 0.6 mm 8 m/S 762 mmHg 84%
    07:00 +12°C° 0.6 mm 7 m/S 762 mmHg 84%
    08:00 +12°C° 0.6 mm 7 m/S 763 mmHg 84%
    09:00 +14°C° 0.2 mm 7 m/S 763 mmHg 83%
    10:00 +14°C° 0.2 mm 6 m/S 763 mmHg 82%
    11:00 +14°C° 0.2 mm 6 m/S 763 mmHg 81%
    12:00 +14°C° 0.1 mm 6 m/S 762 mmHg 79%
    13:00 +15°C° 0.1 mm 6 m/S 762 mmHg 77%
    14:00 +15°C° 0.1 mm 6 m/S 761 mmHg 74%
    15:00 +15°C° 0.1 mm 6 m/S 761 mmHg 76%
    16:00 +15°C° 0.1 mm 5 m/S 761 mmHg 78%
    17:00 +14°C° 0.1 mm 5 m/S 760 mmHg 80%
    18:00 +14°C° 1.5 mm 5 m/S 761 mmHg 82%
    19:00 +14°C° 1.5 mm 5 m/S 761 mmHg 84%
    20:00 +14°C° 1.5 mm 4 m/S 761 mmHg 86%
    21:00 +14°C° 0.1 mm 5 m/S 762 mmHg 86%
    22:00 +14°C° 0.1 mm 5 m/S 762 mmHg 85%
    23:00 +13°C° 0.1 mm 5 m/S 762 mmHg 85%

    25 Februar, Montag

    Zeit Temperatur Niederschläge Wind Luftdruck Luftfeuchtigkeit
    00:00 +13°C° 0.1 mm 4 m/S 762 mmHg 85%
    01:00 +13°C° 0.1 mm 4 m/S 761 mmHg 85%
    02:00 +13°C° 0.1 mm 4 m/S 761 mmHg 85%
    03:00 +13°C° 1.1 mm 4 m/S 761 mmHg 86%
    04:00 +13°C° 1.1 mm 4 m/S 761 mmHg 87%
    05:00 +13°C° 1.1 mm 4 m/S 761 mmHg 87%
    06:00 +14°C° 0.1 mm 4 m/S 761 mmHg 86%
    07:00 +14°C° 0.1 mm 4 m/S 762 mmHg 85%
    08:00 +14°C° 0.1 mm 4 m/S 763 mmHg 84%
    09:00 +17°C° 0 mm 4 m/S 763 mmHg 79%
    10:00 +18°C° 0 mm 4 m/S 762 mmHg 74%
    11:00 +20°C° 0 mm 5 m/S 762 mmHg 68%
    12:00 +20°C° 0 mm 5 m/S 762 mmHg 67%
    13:00 +21°C° 0 mm 5 m/S 761 mmHg 66%
    14:00 +22°C° 0 mm 6 m/S 761 mmHg 65%
    15:00 +21°C° 0 mm 6 m/S 761 mmHg 67%
    16:00 +21°C° 0 mm 6 m/S 761 mmHg 70%
    17:00 +20°C° 0 mm 7 m/S 760 mmHg 72%
    18:00 +19°C° 0 mm 6 m/S 761 mmHg 76%
    19:00 +17°C° 0 mm 6 m/S 762 mmHg 80%
    20:00 +16°C° 0 mm 6 m/S 762 mmHg 83%
    21:00 +16°C° 0 mm 6 m/S 762 mmHg 84%
    22:00 +16°C° 0 mm 6 m/S 762 mmHg 84%
    23:00 +15°C° 0 mm 6 m/S 763 mmHg 84%

    26 Februar, Dienstag

    Zeit Temperatur Niederschläge Wind Luftdruck Luftfeuchtigkeit
    00:00 +15°C° 0 mm 5 m/S 762 mmHg 84%
    01:00 +15°C° 0 mm 5 m/S 762 mmHg 85%
    02:00 +15°C° 0 mm 5 m/S 762 mmHg 85%
    03:00 +15°C° 0 mm 4 m/S 762 mmHg 85%
    04:00 +15°C° 0 mm 4 m/S 762 mmHg 85%
    05:00 +14°C° 0 mm 4 m/S 762 mmHg 85%
    06:00 +15°C° 0 mm 4 m/S 762 mmHg 82%
    07:00 +17°C° 0 mm 4 m/S 763 mmHg 79%
    08:00 +17°C° 0 mm 4 m/S 763 mmHg 76%
    09:00 +19°C° 0 mm 4 m/S 763 mmHg 71%
    10:00 +21°C° 0 mm 5 m/S 763 mmHg 66%
    11:00 +22°C° 0 mm 5 m/S 763 mmHg 62%
    12:00 +23°C° 0 mm 5 m/S 762 mmHg 62%
    13:00 +23°C° 0 mm 6 m/S 762 mmHg 61%
    14:00 +24°C° 0 mm 6 m/S 761 mmHg 61%
    15:00 +23°C° 0 mm 7 m/S 761 mmHg 64%
    16:00 +22°C° 0 mm 7 m/S 761 mmHg 66%
    17:00 +22°C° 0 mm 7 m/S 761 mmHg 68%
    18:00 +21°C° 0 mm 7 m/S 762 mmHg 72%
    19:00 +20°C° 0 mm 7 m/S 762 mmHg 77%
    20:00 +17°C° 0 mm 7 m/S 763 mmHg 81%
    21:00 +17°C° 0 mm 6 m/S 763 mmHg 81%
    22:00 +17°C° 0 mm 6 m/S 763 mmHg 82%
    23:00 +17°C° 0 mm 6 m/S 763 mmHg 83%
    Mehr zeigen